SCP
-0 -0 -0 -0 -0 -0 -0 -0 -0 -0 -0 -0 -0 -0 -0 -0 -0 -0 -0 -0 0 -1 0 0 0 0 0 0 1 1 0 -0 -0 0 0 0 0 0 -0 0 0 -0 -0 -0 -0
-0 -0 -0 -0 -0 -0 -0 -0 -0 -0 -0 -0 -0 -0 -0 -0 -0 -0 0 0 -1 -1 -0 -0 0 0 0 0 0 0 -0 -0 -0 0 0 0 0 0 0 0 0 0 -0 -0 -0
-0 -0 -0 -0 -0 -0 -0 -0 -0 -0 -0 -0 -0 -0 -0 -0 -0 0 -0 -0 -0 -1 -0 -0 0 -0 0 0 0 0 -0 0 0 0 0 0 0 0 0 0 0 -0 -0 -0 -0
-0 -0 -0 -0 -0 -0 -0 -0 -0 -0 -0 -0 -0 -0 -0 0 -0 0 0 -0 -0 -0 -0 -0 0 0 -0 -0 0 -0 -0 0 0 0 0 0 0 0 0 0 0 -0 -0 -0 -0
-0 -0 -0 -0 -0 -0 -0 -0 -0 -0 -0 -0 -0 -0 -0 -0 0 0 0 -0 -0 -0 -0 -0 -0 -0 -0 -0 -0 -0 0 0 0 0 0 0 0 0 0 0 0 -0 -0 -0 -0
0 0 0 -0 -0 -0 -0 0 -0 -0 -0 -0 -0 0 0 -0 0 0 0 -0 0 -0 -0 -0 -0 -0 -0 0 -0 -0 0 -0 0 0 0 0 0 0 0 0 0 -0 -0 -0 -0
0 0 0 0 -0 -0 0 0 0 -0 0 0 0 0 0 0 0 0 0 0 0 -0 -0 -0 0 -0 -0 0 0 -0 -0 -0 -0 -0 0 0 0 0 0 0 0 -0 -0 -0 -0
-0 0 0 0 0 0 0 0 0 0 0 0 0 0 0 0 0 0 0 0 0 0 -0 -0 -0 -0 -0 0 -0 -0 -0 0 -0 0 0 -0 0 0 0 0 0 -0 -0 -0 -0
-0 -0 -0 -0 0 0 0 0 0 0 0 0 0 0 0 0 0 0 0 0 0 0 0 0 0 -0 -0 -0 -0 -0 -0 -0 -0 -0 0 0 0 0 0 0 0 0 -0 -0 -0
-0 -0 -0 -0 -0 0 0 0 0 0 0 0 0 0 0 0 0 0 0 0 0 0 -0 -0 -0 -0 -0 -0 0 -0 0 -0 0 0 0 0 0 -0 0 0 0 0 -0 -0 -0
-0 -0 -0 -0 -0 -0 0 0 0 0 -0 0 0 0 0 0 0 0 0 0 0 0 -0 -0 0 -0 -0 -0 0 0 0 -0 0 0 -0 0 0 -0 -0 -0 0 0 -0 -0 -0
-0 -0 -0 -0 -0 -0 0 0 0 0 0 0 0 0 0 0 0 0 0 0 0 -0 -0 0 0 -0 -0 0 0 0 0 0 0 0 -0 -0 -0 0 -0 -0 -0 -0 -0 -0 -0
-0 -0 -0 -0 -0 -0 0 0 0 0 0 0 0 0 0 0 0 0 0 0 0 0 -0 -0 -0 -0 -0 0 0 0 -0 0 0 0 -0 -0 0 -0 -0 -0 -0 -0 -0 -0 -0
-0 -0 -0 -0 0 -0 -0 0 0 -0 -0 0 0 0 0 0 0 0 0 -0 0 0 -0 -0 0 -0 0 0 0 -0 0 0 0 -0 -0 0 -0 -0 0 0 -0 -0 -0 -0 -0
-0 -0 -0 -0 -0 0 -0 0 -0 -0 0 0 0 0 0 -0 0 0 0 0 0 0 0 0 0 0 0 0 0 0 0 0 0 0 -0 -0 0 0 -0 0 -0 -0 0 -0 -0
-0 -0 -0 0 0 -0 -0 -0 -0 0 0 0 0 0 -0 0 0 0 0 0 0 0 0 0 0 0 0 0 0 0 0 0 0 0 0 -0 -0 0 0 -0 -0 0 0 0 -0
-0 -0 0 0 -0 -0 -0 -0 -0 -0 0 0 0 -0 0 0 0 -0 0 0 0 0 0 0 0 0 0 0 0 0 0 0 0 0 0 -0 -0 -0 0 0 0 0 0 0 0
-0 -0 0 0 0 -0 -0 -0 0 -0 0 0 -0 -0 0 -0 0 -0 0 0 0 0 0 0 0 -0 0 0 0 0 0 0 0 0 0 -0 0 0 0 0 0 0 0 0 0
-0 0 0 0 0 0 -0 -0 0 0 -0 -0 -0 -0 -0 0 0 0 0 0 0 0 0 0 0 0 0 0 0 0 0 0 0 0 0 0 0 0 0 0 0 0 0 0 0
0 0 0 0 0 0 -0 0 0 -0 0 -0 0 0 -0 0 0 0 0 0 0 0 0 0 0 0 0 0 0 0 0 0 0 0 0 0 0 0 0 0 0 0 0 0 0
0 0 0 0 0 -0 0 0 0 0 0 -0 -0 0 -0 0 -0 0 0 0 0 0 0 0 0 0 0 0 0 0 0 0 0 0 0 0 0 0 0 0 0 0 0 0 0
0 0 0 0 -0 -0 0 -0 -0 -0 -0 -0 -0 -0 -0 -0 -0 0 0 0 0 0 0 0 0 -0 0 0 0 0 0 0 0 0 0 0 0 0 0 0 0 0 0 0 0
-0 -0 0 -0 -0 0 0 0 -0 -0 -0 -0 -0 -0 0 -0 -0 0 0 0 0 0 0 0 0 -0 0 -0 0 0 0 0 0 0 0 0 0 0 0 0 0 0 0 0 0
-0 0 0 0 -0 -0 0 0 0 0 0 -0 -0 -0 -0 0 0 -0 0 0 0 0 0 0 0 0 0 -0 0 -0 0 0 0 0 0 0 0 0 0 0 0 0 0 0 0
0 0 0 0 0 0 0 0 0 0 0 0 0 -0 0 0 -0 -0 -0 -0 0 0 0 0 -0 0 0 0 0 0 0 0 0 0 0 0 0 0 0 0 0 0 0 0 0
0 0 0 0 0 0 0 0 0 0 0 0 0 0 0 -0 0 -0 -0 -0 -0 -0 0 -0 0 0 -0 0 0 0 0 0 0 0 0 0 0 0 0 0 0 0 0 0 0
0 0 0 0 0 0 0 0 0 0 0 0 0 0 0 0 0 -0 0 0 0 -0 -0 -0 -0 0 -0 0 0 0 -0 0 0 0 -0 0 0 0 0 0 0 0 0 0 0
Wind_Speed_500mb
18 17 18 19 19 18 18 19 19 18 18 18 20 20 19 16 15 10 9 5 10 8 8 5 7 8 9 18 12 20 8 20 30 27 21 17 19 13 9 24 16 12 24 53 55
18 19 20 20 21 20 20 20 19 19 18 17 18 19 18 17 16 20 19 15 14 8 13 9 5 11 30 7 10 14 21 23 24 24 23 18 17 18 17 22 20 14 46 52 55
20 20 20 21 21 22 22 22 21 19 19 17 17 18 16 13 16 14 18 14 14 7 8 13 11 17 26 13 8 33 20 23 16 27 20 18 21 17 23 16 24 39 56 54 53
21 21 21 21 22 23 24 24 23 21 20 18 16 15 15 8 14 6 17 20 17 13 13 13 13 35 20 13 7 30 16 23 17 17 17 10 18 13 0 16 29 36 51 53 50
22 21 21 22 22 22 24 25 25 23 22 19 15 15 9 17 11 11 16 21 24 18 20 17 26 28 15 7 7 28 15 21 18 16 16 12 7 13 10 12 21 37 49 51 48
23 23 22 21 21 21 22 25 25 24 23 20 17 14 12 31 1 8 11 18 25 26 22 20 22 20 29 12 38 15 6 17 17 10 14 14 17 18 15 16 32 45 52 49 45
25 24 22 21 20 20 20 22 23 23 23 21 17 14 19 21 7 14 13 13 24 27 27 21 17 24 19 8 2 14 21 26 19 14 7 20 25 9 22 25 35 46 51 48 44
27 26 23 21 19 18 17 18 19 18 18 16 13 8 20 12 12 21 19 19 25 27 30 23 22 27 28 5 18 26 19 7 26 12 10 24 26 22 27 32 37 44 46 45 44
29 26 24 21 18 15 15 14 13 9 8 6 3 9 25 10 18 18 24 26 27 27 27 27 24 36 17 31 32 22 22 8 16 13 6 8 8 26 29 32 36 42 44 43 44
30 27 22 19 14 12 13 11 10 11 6 3 11 13 24 18 12 15 21 24 22 29 29 30 36 32 29 32 12 38 3 12 7 14 9 12 14 28 31 34 37 41 43 44 45
30 24 20 14 9 5 10 9 8 9 20 19 2 24 4 10 16 18 21 26 32 31 33 43 32 33 39 26 21 22 13 10 4 7 13 9 10 23 40 39 40 42 42 44 44
27 19 14 9 5 3 13 8 10 8 16 13 18 19 21 13 14 23 22 29 40 37 38 39 39 40 37 28 18 13 21 20 4 9 15 23 20 18 39 38 43 43 43 43 43
24 15 9 4 4 6 6 4 10 10 17 12 6 9 6 17 18 25 29 38 30 38 40 44 42 37 44 22 26 29 32 25 17 22 31 29 28 23 31 41 41 43 45 45 47
21 11 5 10 10 3 2 7 14 6 12 19 19 10 11 12 21 15 19 30 32 33 40 44 37 50 25 30 33 37 31 17 12 25 25 13 22 26 14 31 34 43 48 50 50
20 10 5 6 8 6 5 13 11 5 12 7 13 1 7 22 12 32 19 23 31 32 23 33 38 43 28 38 36 37 35 14 24 29 34 37 19 17 27 18 32 34 44 52 57
19 11 7 6 3 6 11 14 7 14 6 10 6 7 21 22 14 12 28 25 11 18 16 37 5 15 32 40 45 42 40 25 32 31 29 36 33 27 16 34 24 41 40 46 57
17 12 6 7 3 13 13 9 14 8 5 7 4 9 2 15 13 18 29 32 24 23 30 31 28 27 29 27 27 26 35 29 32 30 29 37 33 33 5 12 9 16 21 41 52
18 14 7 4 10 14 8 21 7 6 16 9 7 12 3 5 11 13 20 29 31 29 28 23 35 45 35 32 36 34 34 30 41 33 33 40 38 13 18 29 9 13 16 5 40
16 12 5 11 15 10 19 14 11 15 10 11 15 18 14 8 11 13 2 20 18 23 25 30 31 20 8 20 29 38 37 34 41 41 32 35 27 17 8 16 28 22 5 14 29
11 7 6 10 11 12 19 12 9 6 14 14 12 18 4 9 14 13 6 9 4 7 16 26 19 29 23 26 34 34 34 28 24 39 39 32 37 23 20 6 10 16 12 14 22
5 12 5 8 11 25 8 9 6 9 12 17 7 3 5 8 19 5 12 14 13 17 14 21 23 24 5 25 28 25 30 36 39 26 26 29 28 35 34 19 19 22 15 5 25
11 7 1 9 23 9 9 8 3 3 5 2 12 13 17 6 12 7 8 17 14 23 24 19 20 24 28 23 19 24 31 32 27 38 29 30 31 13 7 7 10 11 17 15 17
14 7 3 12 9 8 7 12 7 3 4 3 3 7 7 11 11 11 2 12 11 21 18 24 18 26 21 32 31 19 33 34 39 37 40 31 27 21 16 16 20 17 19 13 14
14 6 9 2 7 16 2 3 9 5 5 13 13 12 12 17 10 14 13 5 5 24 11 11 27 34 30 38 10 41 21 24 33 25 32 35 38 29 31 31 22 21 14 16 21
8 10 9 4 9 11 8 5 9 8 6 8 9 11 16 20 21 17 18 15 14 8 16 27 31 29 36 41 44 39 39 35 33 34 35 38 42 35 31 16 23 15 21 23 24
16 14 9 13 5 13 11 7 13 5 8 12 9 12 16 21 24 28 29 23 21 19 20 23 27 30 34 36 39 49 50 44 43 42 37 35 32 37 33 11 13 19 23 27 29
15 10 12 4 9 13 7 9 8 8 15 15 16 16 22 19 26 34 41 45 39 32 30 29 26 28 34 33 31 34 42 44 44 46 47 30 26 6 14 21 20 20 15 19 22
Wind_Direction_500mb
330 325 318 318 320 322 322 322 325 328 331 331 329 324 316 306 293 287 281 194 273 315 344 113 195 215 217 258 250 265 35 55 46 77 116 138 122 143 81 129 154 172 136 159 160
328 323 316 314 311 311 312 313 315 318 321 324 327 323 320 303 280 257 251 253 264 282 136 187 224 207 224 173 280 205 63 53 57 111 118 132 125 126 148 146 134 173 137 154 160
324 321 315 311 306 306 306 304 306 310 313 318 323 323 324 307 278 221 219 230 251 262 194 272 295 236 239 244 2 49 75 83 55 83 118 114 115 143 149 164 152 142 152 161 166
323 319 314 309 306 303 301 298 298 300 303 308 314 318 320 273 241 187 198 216 238 233 256 259 258 246 254 154 186 100 59 77 99 109 117 150 128 152 323 73 148 163 165 168 175
322 316 311 308 305 301 297 295 293 293 295 298 304 309 319 243 246 202 201 206 218 224 246 259 272 279 286 132 144 107 100 93 99 138 128 132 147 98 112 157 157 161 170 175 180
324 317 310 304 301 297 294 293 293 291 286 286 291 297 294 254 161 225 216 214 206 219 254 255 285 330 300 330 121 91 103 104 148 127 131 167 145 208 133 174 156 165 173 180 184
328 320 311 303 295 292 295 297 297 290 282 276 274 285 269 257 190 195 189 213 212 230 251 262 286 291 311 164 161 151 170 168 140 150 152 238 147 182 145 165 165 171 177 182 187
329 322 314 302 294 290 292 297 300 297 287 272 267 270 265 218 214 217 219 234 229 236 242 272 281 282 277 138 209 219 242 166 111 142 142 263 151 130 161 169 173 177 182 185 189
329 323 316 305 297 291 295 297 299 304 298 269 274 225 252 251 220 218 222 226 223 228 239 254 264 264 245 238 222 219 213 43 105 142 175 232 70 139 173 178 179 185 185 191 192
332 323 313 306 302 292 305 298 286 290 279 190 231 238 230 223 190 219 217 219 234 222 225 237 239 246 246 253 107 260 21 82 30 104 192 223 231 154 187 190 190 191 190 193 196
332 323 316 311 295 304 344 311 262 215 214 264 79 244 197 246 260 232 210 214 224 239 224 215 236 241 251 253 149 268 355 311 81 56 288 297 274 182 180 201 195 198 196 194 198
339 331 323 308 277 103 47 334 19 341 287 229 244 255 258 269 248 213 204 217 212 230 223 241 223 250 251 273 294 256 268 267 202 155 279 279 281 184 172 200 204 199 198 200 193
343 339 337 337 144 124 29 60 342 318 253 144 166 223 206 218 245 201 201 213 222 227 237 232 239 226 253 264 254 256 264 278 315 318 270 258 275 176 173 181 201 203 202 202 198
360 3 38 115 104 203 170 332 338 303 257 137 181 138 197 217 232 235 222 237 236 242 234 247 242 261 263 255 265 263 263 337 302 270 284 302 302 224 152 180 189 202 203 202 201
8 23 98 182 148 299 269 322 318 270 215 105 115 63 214 220 93 194 211 230 258 221 262 236 238 250 243 260 254 263 288 317 295 281 279 271 255 135 195 185 188 199 206 205 200
18 37 88 76 44 287 307 309 314 236 101 121 171 189 189 203 200 132 203 223 277 271 230 260 321 278 265 257 251 265 271 266 257 259 260 265 274 271 127 193 208 175 191 209 206
22 37 68 128 311 306 305 272 241 296 160 99 78 205 340 165 165 207 197 202 216 219 232 222 227 225 252 265 252 246 249 251 245 236 245 251 246 255 189 185 323 94 159 189 208
19 21 35 4 316 313 290 252 295 336 45 147 228 207 321 317 158 201 187 214 221 285 289 252 220 212 212 236 261 227 244 253 254 258 262 251 245 222 250 273 320 269 163 228 196
338 1 8 313 302 301 274 267 38 25 340 331 215 231 147 156 291 195 339 33 37 320 280 278 252 240 262 273 233 250 257 264 274 273 272 279 283 264 259 284 268 257 354 173 205
323 272 352 319 295 278 255 27 99 354 293 249 308 303 354 86 249 245 140 28 350 355 305 286 297 291 261 216 251 266 278 263 230 260 271 273 267 264 252 150 289 270 73 148 205
290 244 6 328 279 253 283 64 102 94 320 323 337 204 344 348 314 289 73 83 5 345 305 304 285 273 192 253 255 208 237 251 273 281 267 254 255 260 243 194 248 278 111 205 194
292 268 338 320 263 312 93 2 290 81 189 290 286 338 322 337 323 317 356 41 5 323 317 347 308 296 286 284 232 289 280 231 236 247 256 281 287 252 329 280 191 348 312 298 221
299 7 300 307 285 126 136 135 317 302 316 261 306 291 343 311 288 243 197 100 312 319 1 344 289 299 269 241 204 229 250 263 276 280 273 271 267 259 295 284 247 277 303 317 254
294 241 137 298 337 312 238 160 182 187 287 310 325 278 278 263 204 281 263 200 256 294 68 288 267 275 286 312 204 300 300 285 278 277 276 270 274 271 281 275 276 308 15 314 280
338 43 351 350 98 340 294 9 270 241 205 262 250 275 328 302 293 281 279 302 298 169 255 246 275 287 291 295 298 289 287 283 278 280 283 296 299 303 302 347 15 338 306 312 287
354 338 325 305 247 264 144 202 296 300 275 274 262 329 311 298 306 308 308 292 292 282 263 274 284 282 269 272 273 280 280 278 273 274 275 279 280 282 294 331 315 318 317 308 294
8 335 306 133 281 268 16 13 337 334 259 287 316 302 288 330 322 297 290 286 281 277 276 280 283 280 275 288 290 275 257 257 269 274 274 268 278 360 313 319 323 307 321 311 312
Wind_Speed_850mb
18 17 18 19 19 18 18 19 19 18 18 18 20 20 19 16 15 10 9 5 10 8 8 5 7 8 9 18 12 20 8 20 30 27 21 17 19 13 9 24 16 12 24 53 55
18 19 20 20 21 20 20 20 19 19 18 17 18 19 18 17 16 20 19 15 14 8 13 9 5 11 30 7 10 14 21 23 24 24 23 18 17 18 17 22 20 14 46 52 55
20 20 20 21 21 22 22 22 21 19 19 17 17 18 16 13 16 14 18 14 14 7 8 13 11 17 26 13 8 33 20 23 16 27 20 18 21 17 23 16 24 39 56 54 53
21 21 21 21 22 23 24 24 23 21 20 18 16 15 15 8 14 6 17 20 17 13 13 13 13 35 20 13 7 30 16 23 17 17 17 10 18 13 0 16 29 36 51 53 50
22 21 21 22 22 22 24 25 25 23 22 19 15 15 9 17 11 11 16 21 24 18 20 17 26 28 15 7 7 28 15 21 18 16 16 12 7 13 10 12 21 37 49 51 48
23 23 22 21 21 21 22 25 25 24 23 20 17 14 12 31 1 8 11 18 25 26 22 20 22 20 29 12 38 15 6 17 17 10 14 14 17 18 15 16 32 45 52 49 45
25 24 22 21 20 20 20 22 23 23 23 21 17 14 19 21 7 14 13 13 24 27 27 21 17 24 19 8 2 14 21 26 19 14 7 20 25 9 22 25 35 46 51 48 44
27 26 23 21 19 18 17 18 19 18 18 16 13 8 20 12 12 21 19 19 25 27 30 23 22 27 28 5 18 26 19 7 26 12 10 24 26 22 27 32 37 44 46 45 44
29 26 24 21 18 15 15 14 13 9 8 6 3 9 25 10 18 18 24 26 27 27 27 27 24 36 17 31 32 22 22 8 16 13 6 8 8 26 29 32 36 42 44 43 44
30 27 22 19 14 12 13 11 10 11 6 3 11 13 24 18 12 15 21 24 22 29 29 30 36 32 29 32 12 38 3 12 7 14 9 12 14 28 31 34 37 41 43 44 45
30 24 20 14 9 5 10 9 8 9 20 19 2 24 4 10 16 18 21 26 32 31 33 43 32 33 39 26 21 22 13 10 4 7 13 9 10 23 40 39 40 42 42 44 44
27 19 14 9 5 3 13 8 10 8 16 13 18 19 21 13 14 23 22 29 40 37 38 39 39 40 37 28 18 13 21 20 4 9 15 23 20 18 39 38 43 43 43 43 43
24 15 9 4 4 6 6 4 10 10 17 12 6 9 6 17 18 25 29 38 30 38 40 44 42 37 44 22 26 29 32 25 17 22 31 29 28 23 31 41 41 43 45 45 47
21 11 5 10 10 3 2 7 14 6 12 19 19 10 11 12 21 15 19 30 32 33 40 44 37 50 25 30 33 37 31 17 12 25 25 13 22 26 14 31 34 43 48 50 50
20 10 5 6 8 6 5 13 11 5 12 7 13 1 7 22 12 32 19 23 31 32 23 33 38 43 28 38 36 37 35 14 24 29 34 37 19 17 27 18 32 34 44 52 57
19 11 7 6 3 6 11 14 7 14 6 10 6 7 21 22 14 12 28 25 11 18 16 37 5 15 32 40 45 42 40 25 32 31 29 36 33 27 16 34 24 41 40 46 57
17 12 6 7 3 13 13 9 14 8 5 7 4 9 2 15 13 18 29 32 24 23 30 31 28 27 29 27 27 26 35 29 32 30 29 37 33 33 5 12 9 16 21 41 52
18 14 7 4 10 14 8 21 7 6 16 9 7 12 3 5 11 13 20 29 31 29 28 23 35 45 35 32 36 34 34 30 41 33 33 40 38 13 18 29 9 13 16 5 40
16 12 5 11 15 10 19 14 11 15 10 11 15 18 14 8 11 13 2 20 18 23 25 30 31 20 8 20 29 38 37 34 41 41 32 35 27 17 8 16 28 22 5 14 29
11 7 6 10 11 12 19 12 9 6 14 14 12 18 4 9 14 13 6 9 4 7 16 26 19 29 23 26 34 34 34 28 24 39 39 32 37 23 20 6 10 16 12 14 22
5 12 5 8 11 25 8 9 6 9 12 17 7 3 5 8 19 5 12 14 13 17 14 21 23 24 5 25 28 25 30 36 39 26 26 29 28 35 34 19 19 22 15 5 25
11 7 1 9 23 9 9 8 3 3 5 2 12 13 17 6 12 7 8 17 14 23 24 19 20 24 28 23 19 24 31 32 27 38 29 30 31 13 7 7 10 11 17 15 17
14 7 3 12 9 8 7 12 7 3 4 3 3 7 7 11 11 11 2 12 11 21 18 24 18 26 21 32 31 19 33 34 39 37 40 31 27 21 16 16 20 17 19 13 14
14 6 9 2 7 16 2 3 9 5 5 13 13 12 12 17 10 14 13 5 5 24 11 11 27 34 30 38 10 41 21 24 33 25 32 35 38 29 31 31 22 21 14 16 21
8 10 9 4 9 11 8 5 9 8 6 8 9 11 16 20 21 17 18 15 14 8 16 27 31 29 36 41 44 39 39 35 33 34 35 38 42 35 31 16 23 15 21 23 24
16 14 9 13 5 13 11 7 13 5 8 12 9 12 16 21 24 28 29 23 21 19 20 23 27 30 34 36 39 49 50 44 43 42 37 35 32 37 33 11 13 19 23 27 29
15 10 12 4 9 13 7 9 8 8 15 15 16 16 22 19 26 34 41 45 39 32 30 29 26 28 34 33 31 34 42 44 44 46 47 30 26 6 14 21 20 20 15 19 22
Wind_Direction_850mb
330 325 318 318 320 322 322 322 325 328 331 331 329 324 316 306 293 287 281 194 273 315 344 113 195 215 217 258 250 265 35 55 46 77 116 138 122 143 81 129 154 172 136 159 160
328 323 316 314 311 311 312 313 315 318 321 324 327 323 320 303 280 257 251 253 264 282 136 187 224 207 224 173 280 205 63 53 57 111 118 132 125 126 148 146 134 173 137 154 160
324 321 315 311 306 306 306 304 306 310 313 318 323 323 324 307 278 221 219 230 251 262 194 272 295 236 239 244 2 49 75 83 55 83 118 114 115 143 149 164 152 142 152 161 166
323 319 314 309 306 303 301 298 298 300 303 308 314 318 320 273 241 187 198 216 238 233 256 259 258 246 254 154 186 100 59 77 99 109 117 150 128 152 323 73 148 163 165 168 175
322 316 311 308 305 301 297 295 293 293 295 298 304 309 319 243 246 202 201 206 218 224 246 259 272 279 286 132 144 107 100 93 99 138 128 132 147 98 112 157 157 161 170 175 180
324 317 310 304 301 297 294 293 293 291 286 286 291 297 294 254 161 225 216 214 206 219 254 255 285 330 300 330 121 91 103 104 148 127 131 167 145 208 133 174 156 165 173 180 184
328 320 311 303 295 292 295 297 297 290 282 276 274 285 269 257 190 195 189 213 212 230 251 262 286 291 311 164 161 151 170 168 140 150 152 238 147 182 145 165 165 171 177 182 187
329 322 314 302 294 290 292 297 300 297 287 272 267 270 265 218 214 217 219 234 229 236 242 272 281 282 277 138 209 219 242 166 111 142 142 263 151 130 161 169 173 177 182 185 189
329 323 316 305 297 291 295 297 299 304 298 269 274 225 252 251 220 218 222 226 223 228 239 254 264 264 245 238 222 219 213 43 105 142 175 232 70 139 173 178 179 185 185 191 192
332 323 313 306 302 292 305 298 286 290 279 190 231 238 230 223 190 219 217 219 234 222 225 237 239 246 246 253 107 260 21 82 30 104 192 223 231 154 187 190 190 191 190 193 196
332 323 316 311 295 304 344 311 262 215 214 264 79 244 197 246 260 232 210 214 224 239 224 215 236 241 251 253 149 268 355 311 81 56 288 297 274 182 180 201 195 198 196 194 198
339 331 323 308 277 103 47 334 19 341 287 229 244 255 258 269 248 213 204 217 212 230 223 241 223 250 251 273 294 256 268 267 202 155 279 279 281 184 172 200 204 199 198 200 193
343 339 337 337 144 124 29 60 342 318 253 144 166 223 206 218 245 201 201 213 222 227 237 232 239 226 253 264 254 256 264 278 315 318 270 258 275 176 173 181 201 203 202 202 198
360 3 38 115 104 203 170 332 338 303 257 137 181 138 197 217 232 235 222 237 236 242 234 247 242 261 263 255 265 263 263 337 302 270 284 302 302 224 152 180 189 202 203 202 201
8 23 98 182 148 299 269 322 318 270 215 105 115 63 214 220 93 194 211 230 258 221 262 236 238 250 243 260 254 263 288 317 295 281 279 271 255 135 195 185 188 199 206 205 200
18 37 88 76 44 287 307 309 314 236 101 121 171 189 189 203 200 132 203 223 277 271 230 260 321 278 265 257 251 265 271 266 257 259 260 265 274 271 127 193 208 175 191 209 206
22 37 68 128 311 306 305 272 241 296 160 99 78 205 340 165 165 207 197 202 216 219 232 222 227 225 252 265 252 246 249 251 245 236 245 251 246 255 189 185 323 94 159 189 208
19 21 35 4 316 313 290 252 295 336 45 147 228 207 321 317 158 201 187 214 221 285 289 252 220 212 212 236 261 227 244 253 254 258 262 251 245 222 250 273 320 269 163 228 196
338 1 8 313 302 301 274 267 38 25 340 331 215 231 147 156 291 195 339 33 37 320 280 278 252 240 262 273 233 250 257 264 274 273 272 279 283 264 259 284 268 257 354 173 205
323 272 352 319 295 278 255 27 99 354 293 249 308 303 354 86 249 245 140 28 350 355 305 286 297 291 261 216 251 266 278 263 230 260 271 273 267 264 252 150 289 270 73 148 205
290 244 6 328 279 253 283 64 102 94 320 323 337 204 344 348 314 289 73 83 5 345 305 304 285 273 192 253 255 208 237 251 273 281 267 254 255 260 243 194 248 278 111 205 194
292 268 338 320 263 312 93 2 290 81 189 290 286 338 322 337 323 317 356 41 5 323 317 347 308 296 286 284 232 289 280 231 236 247 256 281 287 252 329 280 191 348 312 298 221
299 7 300 307 285 126 136 135 317 302 316 261 306 291 343 311 288 243 197 100 312 319 1 344 289 299 269 241 204 229 250 263 276 280 273 271 267 259 295 284 247 277 303 317 254
294 241 137 298 337 312 238 160 182 187 287 310 325 278 278 263 204 281 263 200 256 294 68 288 267 275 286 312 204 300 300 285 278 277 276 270 274 271 281 275 276 308 15 314 280
338 43 351 350 98 340 294 9 270 241 205 262 250 275 328 302 293 281 279 302 298 169 255 246 275 287 291 295 298 289 287 283 278 280 283 296 299 303 302 347 15 338 306 312 287
354 338 325 305 247 264 144 202 296 300 275 274 262 329 311 298 306 308 308 292 292 282 263 274 284 282 269 272 273 280 280 278 273 274 275 279 280 282 294 331 315 318 317 308 294
8 335 306 133 281 268 16 13 337 334 259 287 316 302 288 330 322 297 290 286 281 277 276 280 283 280 275 288 290 275 257 257 269 274 274 268 278 360 313 319 323 307 321 311 312